This demonstration page uses our WeatherBlox Daily Observations layout. Learn more.

Left ArrowRight Arrow

34.16533, -84.80231

Hourly Observations for June 21, 2022

Temp ( °F °C ) Dew Point ( °F °C ) Humidity (%) Winds ( mph kmh ) Pressure ( in mb ) Visibility ( mi km ) Precip ( " mm )
12:15 am 00:15 Clear 72 22 64 18 78 78 Calm 30.18 1022 10 16 0.00 0.00
12:35 am 00:35 Mostly Clear 70 21 64 18 83 83 Calm 30.17 1022 10 16 0.00 0.00
12:55 am 00:55 Partly Cloudy 70 21 64 18 83 83 Calm 30.17 1022 10 16 0.00 0.00
1:15 am 01:15 Partly Cloudy 70 21 64 18 83 83 Calm 30.17 1022 10 16 0.00 0.00
1:35 am 01:35 Mostly Clear 70 21 64 18 83 83 Calm 30.17 1022 10 16 0.00 0.00
1:55 am 01:55 Partly Cloudy 68 20 64 18 88 88 Calm 30.17 1022 10 16 0.00 0.00
2:15 am 02:15 Mostly Cloudy 68 20 64 18 88 88 Calm 30.17 1022 10 16 0.00 0.00
2:35 am 02:35 Mostly Cloudy 68 20 64 18 88 88 Calm 30.17 1022 10 16 0.00 0.00
2:55 am 02:55 Partly Cloudy 66 19 64 18 94 94 Calm 30.17 1022 10 16 0.00 0.00
3:15 am 03:15 Partly Cloudy 66 19 64 18 94 94 Calm 30.18 1022 10 16 0.00 0.00
3:35 am 03:35 Partly Cloudy 66 19 63 17 88 88 Calm 30.17 1022 10 16 0.00 0.00
3:55 am 03:55 Partly Cloudy 66 19 63 17 88 88 Calm 30.17 1022 10 16 0.00 0.00
4:15 am 04:15 Partly Cloudy 64 18 63 17 94 94 Calm 30.18 1022 10 16 0.00 0.00
4:35 am 04:35 Mostly Clear 66 19 63 17 88 88 Calm 30.18 1022 10 16 0.00 0.00
4:55 am 04:55 Partly Cloudy 64 18 63 17 94 94 Calm 30.18 1022 10 16 0.00 0.00
5:15 am 05:15 Mostly Cloudy 64 18 63 17 94 94 Calm 30.19 1022 10 16 0.00 0.00
5:35 am 05:35 Mostly Cloudy 64 18 63 17 94 94 Calm 30.20 1023 10 16 0.00 0.00
5:55 am 05:55 Mostly Cloudy 64 18 63 17 94 94 Calm 30.20 1023 10 16 0.00 0.00
6:15 am 06:15 Partly Cloudy 64 18 63 17 94 94 Calm 30.20 1023 10 16 0.00 0.00
6:35 am 06:35 Sunny 64 18 63 17 94 94 Calm 30.22 1023 10 16 0.00 0.00
6:55 am 06:55 Sunny 64 18 63 17 94 94 Calm 30.22 1023 10 16 0.00 0.00
7:15 am 07:15 Sunny 64 18 63 17 94 94 Calm 30.23 1024 10 16 0.00 0.00
7:35 am 07:35 Sunny 64 18 63 17 94 94 Calm 30.24 1024 10 16 0.00 0.00
7:55 am 07:55 Sunny 66 19 64 18 94 94 Calm 30.24 1024 10 16 0.00 0.00
8:15 am 08:15 Sunny 68 20 64 18 88 88 Calm 30.24 1024 10 16 0.00 0.00
8:35 am 08:35 Sunny 70 21 64 18 83 83 Calm 30.24 1024 10 16 0.00 0.00
8:55 am 08:55 Sunny 72 22 66 19 83 83 Calm 30.25 1024 10 16 0.00 0.00
9:15 am 09:15 Sunny 73 23 64 18 74 74 Calm 30.24 1024 10 16 0.00 0.00
9:35 am 09:35 Sunny 75 24 66 19 74 74 Calm 30.24 1024 10 16 0.00 0.00
9:55 am 09:55 Sunny 75 24 64 18 69 69 Calm 30.24 1024 10 16 0.00 0.00
10:15 am 10:15 Sunny 79 26 64 18 61 61 Calm 30.24 1024 10 16 0.00 0.00
10:35 am 10:35 Sunny 79 26 64 18 61 61 Calm 30.24 1024 10 16 0.00 0.00
10:55 am 10:55 Sunny 82 28 66 19 58 58 NNE 5 7 30.23 1024 10 16 0.00 0.00
11:15 am 11:15 Sunny 82 28 64 18 55 55 Calm 30.23 1024 10 16 0.00 0.00
11:35 am 11:35 Sunny 84 29 63 17 48 48 VRB 5 7 30.22 1023 10 16 0.00 0.00
11:55 am 11:55 Sunny 86 30 64 18 49 49 VRB 5 7 30.22 1023 10 16 0.00 0.00
12:15 pm 12:15 Sunny 86 30 64 18 49 49 VRB 7 11 30.21 1023 10 16 0.00 0.00
12:35 pm 12:35 Sunny 88 31 64 18 46 46 VRB 5 7 30.20 1023 10 16 0.00 0.00
12:55 pm 12:55 Sunny 90 32 64 18 43 43 Calm 30.19 1022 10 16 0.00 0.00
1:15 pm 13:15 Sunny 90 32 61 16 38 38 VRB 5 7 30.19 1022 10 16 0.00 0.00
1:35 pm 13:35 Sunny 91 33 61 16 36 36 N 8 13 30.18 1022 10 16 0.00 0.00
1:55 pm 13:55 Sunny 91 33 59 15 34 34 N 8 13 30.18 1022 10 16 0.00 0.00
2:15 pm 14:15 Sunny 91 33 61 16 36 36 N 8 13 30.17 1022 10 16 0.00 0.00
2:35 pm 14:35 Sunny 91 33 61 16 36 36 NNE 9 15 30.16 1021 10 16 0.00 0.00
2:55 pm 14:55 Sunny 91 33 63 17 38 38 NNE 9 15 30.16 1021 10 16 0.00 0.00
3:15 pm 15:15 Sunny 93 34 63 17 36 36 VRB 7 11 30.15 1021 10 16 0.00 0.00
3:35 pm 15:35 Sunny 93 34 59 15 32 32 NNE 10 17 30.15 1021 10 16 0.00 0.00
3:55 pm 15:55 Sunny 93 34 61 16 34 34 Calm 30.14 1021 10 16 0.00 0.00
4:15 pm 16:15 Sunny 93 34 61 16 34 34 W 7 11 30.13 1020 10 16 0.00 0.00
4:35 pm 16:35 Sunny 93 34 61 16 34 34 VRB 3 6 30.12 1020 10 16 0.00 0.00
4:55 pm 16:55 Sunny 93 34 57 14 30 30 NNE 6 9 30.12 1020 10 16 0.00 0.00
5:15 pm 17:15 Sunny 93 34 57 14 30 30 NNE 6 9 30.11 1020 10 16 0.00 0.00
5:35 pm 17:35 Sunny 93 34 57 14 30 30 VRB 6 9 30.11 1020 10 16 0.00 0.00
5:55 pm 17:55 Sunny 93 34 57 14 30 30 VRB 6 9 30.10 1019 10 16 0.00 0.00
6:15 pm 18:15 Sunny 93 34 55 13 28 28 NNE 9 15 30.10 1019 10 16 0.00 0.00
6:35 pm 18:35 Sunny 93 34 55 13 28 28 VRB 5 7 30.10 1019 10 16 0.00 0.00
6:55 pm 18:55 Sunny 93 34 54 12 26 26 NNE 5 7 30.10 1019 10 16 0.00 0.00
7:15 pm 19:15 Sunny 93 34 55 13 28 28 Calm 30.09 1019 10 16 0.00 0.00
7:35 pm 19:35 Sunny 91 33 57 14 32 32 NNW 5 7 30.09 1019 9 14 0.00 0.00
7:55 pm 19:55 Sunny 91 33 59 15 34 34 Calm 30.09 1019 10 16 0.00 0.00
8:15 pm 20:15 Sunny 90 32 57 14 33 33 Calm 30.09 1019 10 16 0.00 0.00
8:35 pm 20:35 Sunny 90 32 57 14 33 33 Calm 30.09 1019 10 16 0.00 0.00
8:55 pm 20:55 Clear 86 30 61 16 43 43 Calm 30.10 1019 10 16 0.00 0.00
9:15 pm 21:15 Clear 84 29 61 16 45 45 Calm 30.10 1019 10 16 0.00 0.00
9:35 pm 21:35 Clear 82 28 61 16 48 48 Calm 30.11 1020 10 16 0.00 0.00
9:55 pm 21:55 Clear 81 27 61 16 51 51 Calm 30.11 1020 10 16 0.00 0.00
10:15 pm 22:15 Clear 79 26 63 17 58 58 Calm 30.12 1020 10 16 0.00 0.00
10:35 pm 22:35 Clear 75 24 63 17 65 65 Calm 30.13 1020 10 16 0.00 0.00
10:55 pm 22:55 Clear 75 24 63 17 65 65 Calm 30.14 1021 10 16 0.00 0.00
11:15 pm 23:15 Clear 73 23 63 17 69 69 Calm 30.14 1021 10 16 0.00 0.00
11:35 pm 23:35 Clear 73 23 63 17 69 69 Calm 30.13 1020 10 16 0.00 0.00
11:55 pm 23:55 Clear 72 22 63 17 73 73 Calm 30.14 1021 10 16 0.00 0.00

Powered by AerisWeather